Language: 


Des rapports , des résumés tant et plus, au choix de chacun....


Données statistiques de la station
Quotidien Rapport Février 1, 2017 Unités:  Anglais    Métrique   les deux
« Précédent Jour
Suivant Jour »
Quotidien Hebdomadaire Mensuel Annuel Actuel
  Haut: Bas: Moyen:
Température: 48.6 °F 32 °F 45.9 °F
Pt de rosée: 47.7 °F 38.7 °F 45.1 °F
Humidité: 98 % 0 % 97 %
Vitesse du vent: 13 mph 0 mph 5 mph
Rafales: 15.4 mph - -
Vent:- - SSE
Pression: 29.9 in 0 in -
Précipitation: 0.05 in    
Historical Graphs
 
 
Données statistiques pour Février 1, 2017
Heure Température Point de rosée Pression Vent Vitesse du vent Refales Humidité Pluie (taux horaire)
00:02 39.2 °F 38.7 °F 29.9 in SE 3.8 mph 4.3 mph 98 % 0 in
00:07 39.2 °F 38.7 °F 29.9 in SE 2 mph 4.7 mph 98 % 0 in
00:12 39.2 °F 38.7 °F 29.9 in Calm   4.7 mph 98 % 0 in
00:17 39.2 °F 38.7 °F 29.9 in ESE 2.7 mph 6 mph 98 % 0 in
00:22 39.4 °F 38.8 °F 29.9 in East 4 mph 6 mph 98 % 0 in
00:27 39.4 °F 38.8 °F 29.9 in ESE 4.9 mph 6.5 mph 98 % 0 in
00:32 39.4 °F 38.8 °F 29.9 in SE 5.4 mph 6.5 mph 98 % 0 in
00:37 39.6 °F 39 °F 29.9 in Calm   6.3 mph 98 % 0 in
00:42 39.6 °F 39 °F 29.9 in SE 4 mph 6.7 mph 98 % 0 in
00:47 39.7 °F 39.2 °F 29.9 in SE 3.4 mph 6.7 mph 98 % 0 in
00:52 39.7 °F 39.2 °F 29.9 in SE 5.4 mph 6.5 mph 98 % 0 in
00:57 39.7 °F 39.2 °F 29.9 in SE 3.6 mph 6.5 mph 98 % 0 in
01:02 39.9 °F 39.4 °F 29.9 in SE 2.9 mph 6 mph 98 % 0 in
01:07 39.9 °F 39.4 °F 29.9 in ESE 4.9 mph 5.8 mph 98 % 0 in
01:12 40.1 °F 39.6 °F 29.9 in SSE 5.6 mph 6.5 mph 98 % 0 in
01:17 40.1 °F 39.6 °F 29.9 in East 4.5 mph 6.5 mph 98 % 0 in
01:22 40.3 °F 39.7 °F 29.9 in SE 3.1 mph 6.3 mph 98 % 0 in
01:27 40.3 °F 39.7 °F 29.9 in ESE 2.7 mph 6 mph 98 % 0 in
01:32 40.3 °F 39.7 °F 29.9 in SSE 5.4 mph 6 mph 98 % 0 in
01:37 40.5 °F 39.9 °F 29.9 in SSE 3.8 mph 6.3 mph 98 % 0 in
01:42 40.5 °F 39.9 °F 29.9 in SE 3.6 mph 6.3 mph 98 % 0 in
01:47 40.6 °F 40.1 °F 29.9 in SE 5.4 mph 6.5 mph 98 % 0 in
01:52 40.6 °F 40.1 °F 29.9 in SE 4.7 mph 6.5 mph 98 % 0 in
01:57 40.8 °F 40.3 °F 29.9 in SSE 6 mph 6.5 mph 98 % 0 in
02:03 32 °F 40.3 °F 29.9 in SSE 3.8 mph 5.6 mph 0 % 0 in
02:08 41 °F 40.5 °F 29.9 in SSE 1.1 mph 5.8 mph 98 % 0 in
02:13 41 °F 40.5 °F 29.9 in SSE 4.3 mph 7.4 mph 98 % 0 in
02:18 41.2 °F 40.6 °F 29.9 in SE 5.4 mph 7.4 mph 98 % 0 in
02:23 41.4 °F 40.8 °F 29.9 in SSE 5.8 mph 7.4 mph 98 % 0 in
02:28 41.4 °F 40.8 °F 29.9 in ESE 4.9 mph 7.6 mph 98 % 0 in
02:33 41.4 °F 40.8 °F 29.9 in SSE 4.3 mph 7.6 mph 98 % 0 in
02:38 41.4 °F 40.8 °F 29.9 in SSE 6.5 mph 7.6 mph 98 % 0 in
02:43 41.5 °F 41 °F 29.9 in SSE 4.7 mph 7.6 mph 98 % 0 in
02:48 41.5 °F 41 °F 29.9 in SE 2.5 mph 7.6 mph 98 % 0 in
02:53 41.7 °F 41.2 °F 29.9 in ESE 4.9 mph 7.6 mph 98 % 0 in
02:58 41.9 °F 41.4 °F 29.9 in SE 4 mph 6.9 mph 98 % 0 in
03:03 42.1 °F 41.5 °F 29.9 in SSE 2 mph 6.9 mph 98 % 0 in
03:08 42.3 °F 41.7 °F 0 in SE 4.9 mph 6.3 mph 98 % 0 in
03:13 42.3 °F 41.7 °F 29.9 in Calm   6.3 mph 98 % 0 in
03:18 42.3 °F 41.7 °F 29.9 in SE 2 mph 6.3 mph 98 % 0 in
03:23 42.4 °F 41.9 °F 29.9 in SE 5.4 mph 6 mph 98 % 0 in
03:28 42.6 °F 42.1 °F 29.9 in SE 2.9 mph 6 mph 98 % 0 in
03:33 42.6 °F 42.1 °F 29.9 in South 6 mph 6.5 mph 98 % 0 in
03:38 42.6 °F 42.1 °F 29.9 in ESE 3.4 mph 6.5 mph 98 % 0 in
03:43 42.8 °F 42.3 °F 29.9 in SE 4 mph 6 mph 98 % 0 in
03:48 42.8 °F 42.3 °F 29.9 in SE 3.6 mph 4 mph 98 % 0 in
03:53 43 °F 42.4 °F 29.9 in SSE 3.1 mph 4.3 mph 98 % 0 in
03:58 43 °F 42.4 °F 29.9 in SE 4.3 mph 5.6 mph 98 % 0 in
04:03 43.2 °F 42.6 °F 29.9 in SE 3.4 mph 6 mph 98 % 0 in
04:08 43.2 °F 42.6 °F 29.9 in SSE 3.6 mph 6.7 mph 98 % 0 in
04:13 43.3 °F 42.8 °F 29.9 in SE 3.6 mph 6.7 mph 98 % 0 in
04:18 43.3 °F 42.8 °F 29.9 in ESE 2 mph 6.5 mph 98 % 0 in
04:23 43.3 °F 42.8 °F 29.9 in Calm   6.3 mph 98 % 0 in
04:28 43.3 °F 42.8 °F 29.9 in SSE 2.5 mph 5.8 mph 98 % 0 in
04:33 43.3 °F 42.8 °F 29.9 in SSE 4.9 mph 5.8 mph 98 % 0 in
04:38 43.5 °F 43 °F 29.9 in SE 3.6 mph 7.4 mph 98 % 0 in
04:43 43.5 °F 43 °F 29.9 in SSE 6 mph 7.4 mph 98 % 0 in
04:48 43.5 °F 43 °F 29.9 in SE 3.6 mph 6.3 mph 98 % 0 in
04:53 43.5 °F 43 °F 29.9 in SSE 5.4 mph 6.3 mph 98 % 0 in
04:58 43.5 °F 43 °F 29.9 in SSW 5.4 mph 7.4 mph 98 % 0 in
05:03 43.5 °F 43 °F 29.9 in SSE 4.9 mph 7.4 mph 98 % 0 in
05:08 43.5 °F 43.2 °F 29.9 in SSE 3.6 mph 6.7 mph 98 % 0 in
05:13 43.5 °F 43.2 °F 29.9 in SSE 1.6 mph 6.7 mph 98 % 0 in
05:18 43.5 °F 43.2 °F 29.9 in SSE 4.9 mph 5.8 mph 98 % 0 in
05:23 43.5 °F 43.2 °F 29.9 in SSE 5.4 mph 5.8 mph 98 % 0 in
05:28 43.5 °F 43.2 °F 29.9 in South 3.8 mph 6 mph 98 % 0 in
05:33 43.9 °F 43.3 °F 29.9 in SSE 6.5 mph 6.5 mph 98 % 0 in
05:38 43.9 °F 43.3 °F 29.9 in ESE 3.1 mph 6.5 mph 98 % 0 in
05:43 43.9 °F 43.3 °F 29.9 in SE 2 mph 6.5 mph 98 % 0 in
05:48 43.9 °F 43.3 °F 29.9 in SE 2.7 mph 6 mph 98 % 0 in
05:53 44.1 °F 43.5 °F 29.9 in SSE 4 mph 6 mph 98 % 0 in
05:58 44.1 °F 43.5 °F 29.9 in SSE 2 mph 4.9 mph 98 % 0 in
06:03 44.1 °F 43.5 °F 29.9 in SSE 3.6 mph 5.4 mph 98 % 0 in
06:08 44.1 °F 43.5 °F 29.9 in Calm   5.4 mph 98 % 0 in
06:13 44.1 °F 43.5 °F 29.9 in SE 4 mph 4.7 mph 98 % 0 in
06:18 44.1 °F 43.5 °F 29.9 in SSE 2.2 mph 4.3 mph 98 % 0 in
06:23 44.1 °F 43.5 °F 29.9 in SSE 4.9 mph 4.9 mph 98 % 0 in
06:28 44.2 °F 43.5 °F 29.9 in Calm   4.9 mph 98 % 0 in
06:33 44.2 °F 43.5 °F 29.9 in SE 2.7 mph 5.4 mph 98 % 0 in
06:38 44.2 °F 43.5 °F 29.9 in SE 0.9 mph 7.2 mph 98 % 0 in
06:43 44.2 °F 43.5 °F 29.9 in SSE 2.5 mph 7.2 mph 97 % 0 in
06:48 44.2 °F 43.5 °F 29.9 in SSE 3.6 mph 6 mph 97 % 0 in
06:53 44.2 °F 43.5 °F 29.9 in Calm   4.3 mph 97 % 0 in
06:58 44.4 °F 43.7 °F 29.9 in Calm   4.9 mph 97 % 0 in
07:03 44.4 °F 43.7 °F 29.9 in Calm   4.9 mph 97 % 0 in
07:08 44.4 °F 43.7 °F 29.9 in SE 6.3 mph 6.5 mph 97 % 0 in
07:13 44.8 °F 43.9 °F 29.9 in SSE 4.9 mph 6.5 mph 97 % 0 in
07:18 44.8 °F 43.9 °F 29.9 in SE 3.1 mph 6.5 mph 97 % 0 in
07:23 45 °F 44.1 °F 29.9 in SSE 4 mph 6.3 mph 97 % 0 in
07:28 45 °F 44.1 °F 29.9 in SSE 4 mph 6 mph 97 % 0 in
07:33 45 °F 44.1 °F 29.9 in SSE 2.7 mph 5.6 mph 97 % 0 in
07:38 45 °F 44.1 °F 29.8 in South 4.3 mph 6.5 mph 97 % 0 in
07:43 45.1 °F 44.2 °F 29.8 in SE 6 mph 6.5 mph 97 % 0 in
07:48 45.1 °F 44.2 °F 29.8 in SSE 6 mph 6.5 mph 97 % 0 in
07:53 45.1 °F 44.4 °F 29.9 in SE 0.9 mph 6.5 mph 97 % 0 in
07:58 45.1 °F 44.4 °F 29.9 in SSE 5.8 mph 7.2 mph 97 % 0 in
08:03 45.1 °F 44.4 °F 29.9 in SSE 4.7 mph 7.2 mph 97 % 0 in
08:08 45.3 °F 44.6 °F 29.9 in SSE 4.9 mph 6.5 mph 97 % 0 in
08:13 45.3 °F 44.6 °F 29.9 in SSE 3.1 mph 7.2 mph 97 % 0 in
08:18 45.7 °F 44.8 °F 29.9 in SE 2.9 mph 7.6 mph 97 % 0 in
08:23 45.7 °F 44.8 °F 29.8 in SSE 2.9 mph 7.6 mph 97 % 0 in
08:28 45.7 °F 44.8 °F 29.8 in Calm   7.2 mph 97 % 0 in
08:33 45.7 °F 44.8 °F 29.8 in SE 4.9 mph 7.4 mph 97 % 0 in
08:38 45.7 °F 44.8 °F 29.9 in South 2.7 mph 7.4 mph 97 % 0 in
08:43 45.7 °F 44.8 °F 29.9 in SSE 3.8 mph 6.5 mph 97 % 0 in
08:48 45.7 °F 44.8 °F 29.9 in SE 0.9 mph 6.3 mph 97 % 0 in
08:53 45.7 °F 44.8 °F 29.8 in SSE 7.8 mph 7.8 mph 97 % 0 in
08:58 45.7 °F 44.8 °F 29.8 in SSE 6.3 mph 7.8 mph 97 % 0 in
09:03 45.9 °F 45 °F 29.8 in East 8.7 mph 8.7 mph 97 % 0 in
09:08 45.9 °F 45 °F 29.8 in SE 5.8 mph 8.7 mph 97 % 0 in
09:13 45.9 °F 45 °F 29.8 in SSE 6.5 mph 8.5 mph 97 % 0 in
09:18 45.9 °F 45 °F 29.8 in South 3.6 mph 7.8 mph 97 % 0 in
09:23 45.9 °F 45 °F 29.8 in SSE 5.8 mph 7.8 mph 97 % 0 in
09:28 45.9 °F 45 °F 29.8 in SE 4.5 mph 10.7 mph 97 % 0 in
09:33 45.9 °F 45.1 °F 29.8 in SSE 3.8 mph 10.7 mph 97 % 0 in
09:38 45.9 °F 45.1 °F 29.9 in SSW 2.7 mph 7.6 mph 97 % 0 in
09:43 45.9 °F 45.1 °F 29.9 in SSE 5.6 mph 9.8 mph 97 % 0 in
09:48 45.9 °F 45.1 °F 29.9 in SSE 5.4 mph 9.8 mph 97 % 0 in
09:53 45.9 °F 45.1 °F 29.9 in South 6.3 mph 8.5 mph 97 % 0 in
09:58 46 °F 45.3 °F 29.9 in SSE 2.9 mph 8.1 mph 97 % 0 in
10:03 46.2 °F 45.5 °F 29.9 in SSE 2.9 mph 8.1 mph 97 % 0 in
10:08 46.2 °F 45.5 °F 29.9 in SSE 3.4 mph 6.5 mph 97 % 0 in
10:13 46.2 °F 45.5 °F 29.9 in SSE 3.8 mph 9.8 mph 97 % 0 in
10:18 46.6 °F 45.7 °F 29.9 in SE 6.3 mph 9.8 mph 97 % 0 in
10:23 46.6 °F 45.7 °F 29.9 in SSE 5.4 mph 7.4 mph 97 % 0 in
10:28 46.6 °F 45.9 °F 29.9 in SSW 3.6 mph 9.2 mph 97 % 0 in
10:33 46.6 °F 45.9 °F 29.9 in South 5.4 mph 9.2 mph 97 % 0 in
10:38 46.6 °F 45.9 °F 29.9 in SSE 7.2 mph 8.5 mph 97 % 0 in
10:43 46.6 °F 45.9 °F 29.9 in SSW 4.3 mph 7.2 mph 97 % 0 in
10:48 46.8 °F 46 °F 29.9 in South 5.8 mph 7.2 mph 97 % 0 in
10:53 46.8 °F 46 °F 29.9 in SSE 1.6 mph 6.7 mph 97 % 0 in
10:58 46.9 °F 46.2 °F 29.9 in South 10.1 mph 10.1 mph 97 % 0 in
11:03 47.1 °F 46.4 °F 29.9 in SSE 4 mph 10.1 mph 97 % 0 in
11:08 47.3 °F 46.6 °F 29.9 in South 3.4 mph 10.1 mph 97 % 0 in
11:13 47.5 °F 46.8 °F 29.9 in SSE 7.2 mph 8.7 mph 97 % 0 in
11:18 47.7 °F 46.9 °F 29.9 in SSE 5.8 mph 10.7 mph 97 % 0 in
11:23 47.7 °F 46.9 °F 29.9 in SSE 4 mph 11 mph 97 % 0 in
11:28 47.8 °F 46.8 °F 29.9 in SW 7.2 mph 11 mph 96 % 0 in
11:33 47.7 °F 46.9 °F 29.9 in SSW 10.1 mph 11 mph 97 % 0 in
11:38 47.7 °F 46.6 °F 29.9 in SSE 11 mph 11 mph 96 % 0 in
11:43 47.7 °F 46.6 °F 29.9 in SSE 8.5 mph 13 mph 96 % 0 in
11:48 47.7 °F 46.6 °F 29.9 in SSE 7.4 mph 14.5 mph 96 % 0 in
11:53 47.7 °F 46.6 °F 29.9 in SSE 6.3 mph 15.4 mph 96 % 0 in
11:58 47.7 °F 46.6 °F 29.9 in South 10.3 mph 15.4 mph 96 % 0 in
12:03 47.7 °F 46.6 °F 29.9 in SSE 8.1 mph 11 mph 96 % 0 in
12:08 47.7 °F 46.6 °F 29.8 in South 4 mph 12.1 mph 96 % 0 in
12:13 47.8 °F 46.8 °F 29.8 in SSW 5.8 mph 12.1 mph 96 % 0 in
12:18 47.8 °F 46.8 °F 29.8 in South 6 mph 13.4 mph 96 % 0 in
12:23 48 °F 46.9 °F 29.8 in South 4.3 mph 13.4 mph 96 % 0 in
12:28 48.2 °F 47.1 °F 29.8 in South 5.8 mph 11 mph 96 % 0 in
12:33 48.4 °F 47.3 °F 29.8 in SSE 8.1 mph 10.5 mph 96 % 0 in
12:38 48.4 °F 47.3 °F 29.8 in South 10.3 mph 12.5 mph 96 % 0 in
12:43 48.4 °F 47.3 °F 29.8 in SSE 7.6 mph 12.5 mph 96 % 0 in
12:48 48.2 °F 47.1 °F 29.8 in South 9.8 mph 12.5 mph 96 % 0 in
12:53 48.2 °F 47.1 °F 29.8 in East 8.1 mph 12.5 mph 96 % 0 in
12:58 48.2 °F 47.1 °F 29.8 in South 8.7 mph 11 mph 96 % 0 in
13:03 48.2 °F 47.1 °F 29.8 in SSW 4 mph 12.1 mph 96 % 0 in
13:08 48.2 °F 47.1 °F 29.8 in South 8.9 mph 12.1 mph 96 % 0 in
13:13 48.2 °F 47.1 °F 29.8 in SSE 8.1 mph 13 mph 96 % 0 in
13:18 48.2 °F 47.1 °F 29.8 in South 4.3 mph 13 mph 96 % 0 in
13:23 48.2 °F 47.1 °F 29.8 in South 7.8 mph 11.9 mph 96 % 0 in
13:28 48.2 °F 47.1 °F 29.8 in South 4.3 mph 11.2 mph 96 % 0 in
13:33 48.2 °F 47.1 °F 29.8 in SSE 5.6 mph 11.4 mph 96 % 0 in
13:38 48.2 °F 47.1 °F 29.8 in South 6 mph 11.4 mph 96 % 0 in
13:43 48.2 °F 47.1 °F 29.8 in South 8.5 mph 10.3 mph 96 % 0 in
13:48 48.2 °F 47.1 °F 29.8 in South 9.8 mph 11 mph 96 % 0 in
13:53 48.2 °F 47.1 °F 29.8 in SSE 6.3 mph 11 mph 96 % 0 in
13:58 48.2 °F 47.1 °F 29.8 in SSE 4 mph 10.1 mph 96 % 0 in
14:03 48.2 °F 47.1 °F 29.8 in South 7.2 mph 10.7 mph 96 % 0 in
14:08 48 °F 46.9 °F 29.8 in SSE 7.6 mph 10.7 mph 96 % 0 in
14:13 48 °F 46.9 °F 29.8 in SW 3.1 mph 10.7 mph 96 % 0 in
14:18 48 °F 46.9 °F 29.8 in SSE 6.3 mph 12.1 mph 96 % 0 in
14:23 48 °F 46.9 °F 29.8 in SSE 5.8 mph 12.1 mph 96 % 0 in
14:28 48 °F 46.9 °F 29.8 in SSE 5.4 mph 9.8 mph 96 % 0 in
14:33 48 °F 46.9 °F 29.8 in SSW 3.4 mph 8.9 mph 96 % 0 in
14:38 48.2 °F 47.1 °F 29.8 in SSE 7.8 mph 10.1 mph 96 % 0 in
14:43 48.2 °F 47.1 °F 29.8 in SSE 7.2 mph 10.3 mph 96 % 0 in
14:48 48.2 °F 47.1 °F 29.8 in SSW 6.3 mph 10.3 mph 96 % 0 in
14:53 48.2 °F 47.1 °F 29.8 in South 6.9 mph 11.4 mph 96 % 0 in
14:58 48.2 °F 47.1 °F 29.8 in South 3.8 mph 11.4 mph 96 % 0 in
15:03 48.2 °F 47.1 °F 29.8 in South 6.3 mph 8.7 mph 96 % 0 in
15:08 48.2 °F 47.1 °F 29.8 in South 6.5 mph 10.5 mph 96 % 0 in
15:13 48.4 °F 47.3 °F 29.8 in SSW 6.3 mph 10.5 mph 96 % 0 in
15:18 48.4 °F 47.3 °F 29.8 in SSW 5.6 mph 10.5 mph 96 % 0 in
15:23 48.4 °F 47.3 °F 29.8 in SSW 6 mph 10.5 mph 96 % 0 in
15:28 48.2 °F 47.1 °F 29.8 in South 4.9 mph 10.3 mph 96 % 0 in
15:33 48.2 °F 47.1 °F 29.8 in SSE 13 mph 13 mph 96 % 0 in
15:38 48.2 °F 47.1 °F 29.8 in South 7.8 mph 13 mph 96 % 0 in
15:43 48.2 °F 47.1 °F 29.8 in SSW 6 mph 11.9 mph 96 % 0 in
15:48 48.2 °F 47.1 °F 29.8 in South 5.4 mph 8.1 mph 96 % 0 in
15:53 48.2 °F 47.1 °F 29.8 in South 3.6 mph 8.1 mph 96 % 0 in
15:58 48.2 °F 47.1 °F 29.8 in SSW 6 mph 8.7 mph 96 % 0 in
16:03 48.2 °F 47.1 °F 29.8 in SSW 5.8 mph 9.6 mph 96 % 0 in
16:08 48.2 °F 47.1 °F 29.8 in SSW 6 mph 9.8 mph 96 % 0 in
16:13 48.2 °F 47.1 °F 29.8 in SSE 4.3 mph 9.8 mph 96 % 0 in
16:18 48.2 °F 47.1 °F 29.8 in SSW 4.3 mph 8.9 mph 96 % 0 in
16:23 48.2 °F 47.1 °F 29.8 in South 4 mph 10.3 mph 96 % 0 in
16:28 48.2 °F 47.1 °F 29.8 in South 3.8 mph 10.3 mph 96 % 0 in
16:33 48.2 °F 47.1 °F 29.8 in SSW 6.3 mph 8.5 mph 96 % 0 in
16:38 48 °F 46.9 °F 29.8 in SSE 4.3 mph 7.8 mph 96 % 0.01 in
16:43 48 °F 46.9 °F 29.8 in South 4.9 mph 7.8 mph 96 % 0.01 in
16:48 48 °F 46.9 °F 29.8 in SSE 5.6 mph 10.3 mph 96 % 0.01 in
16:53 48 °F 46.9 °F 29.8 in South 7.6 mph 10.3 mph 96 % 0.01 in
16:58 48 °F 46.9 °F 29.8 in South 4.3 mph 8.7 mph 96 % 0.01 in
17:03 48 °F 46.9 °F 29.8 in South 8.5 mph 9.2 mph 96 % 0.01 in
17:08 48 °F 46.9 °F 29.8 in South 5.8 mph 9.6 mph 96 % 0.01 in
17:13 48 °F 46.9 °F 29.8 in South 8.7 mph 10.5 mph 96 % 0.01 in
17:18 48 °F 46.9 °F 29.8 in South 4 mph 10.5 mph 96 % 0.01 in
17:23 48 °F 46.9 °F 29.8 in SSW 3.1 mph 9.8 mph 96 % 0.01 in
17:28 47.8 °F 46.8 °F 29.8 in SSW 8.5 mph 9.8 mph 96 % 0.01 in
17:33 47.8 °F 46.8 °F 29.8 in SSW 6 mph 8.5 mph 96 % 0.01 in
17:38 47.8 °F 46.8 °F 29.8 in South 4.3 mph 8.1 mph 96 % 0.01 in
17:43 47.8 °F 46.8 °F 29.8 in SSW 3.6 mph 8.1 mph 96 % 0.01 in
17:48 47.8 °F 46.8 °F 29.8 in SSW 4 mph 9.4 mph 96 % 0.01 in
17:53 47.8 °F 46.8 °F 29.8 in South 4.3 mph 9.4 mph 96 % 0.01 in
17:58 47.8 °F 46.8 °F 29.8 in South 8.7 mph 8.7 mph 96 % 0.02 in
18:03 47.8 °F 46.8 °F 29.8 in South 8.7 mph 9.4 mph 96 % 0.02 in
18:08 47.8 °F 46.8 °F 29.8 in SSE 6.5 mph 9.4 mph 96 % 0.02 in
18:13 47.8 °F 46.8 °F 29.8 in SSE 7.8 mph 8.7 mph 96 % 0.02 in
18:18 47.8 °F 46.8 °F 29.8 in SSE 5.6 mph 14.5 mph 96 % 0.03 in
18:23 48 °F 46.9 °F 29.8 in SSE 6 mph 14.5 mph 96 % 0.03 in
18:28 48 °F 46.9 °F 29.8 in SSE 5.6 mph 9.6 mph 96 % 0.03 in
18:33 48 °F 46.9 °F 29.8 in South 11.9 mph 11.9 mph 96 % 0.03 in
18:38 48 °F 46.9 °F 29.8 in SSE 3.6 mph 11.9 mph 96 % 0.03 in
18:43 48 °F 46.9 °F 29.8 in South 3.4 mph 12.3 mph 96 % 0.03 in
18:48 48 °F 46.9 °F 29.8 in South 6 mph 12.3 mph 96 % 0.03 in
18:53 48 °F 46.9 °F 29.8 in SSE 5.4 mph 10.7 mph 96 % 0.03 in
18:54 48 °F 46.9 °F 29.8 in SE 4.9 mph 10.7 mph 96 % 0.03 in
18:59 48.2 °F 47.1 °F 29.8 in SSE 6 mph 14.8 mph 96 % 0.01 in
19:04 48.2 °F 47.1 °F 29.8 in South 6.5 mph 14.8 mph 96 % 0.01 in
19:09 48.2 °F 47.1 °F 29.8 in SSE 5.6 mph 10.1 mph 96 % 0.01 in
19:14 48.2 °F 47.1 °F 29.8 in South 3.1 mph 9.8 mph 96 % 0.01 in
19:19 48.2 °F 47.1 °F 29.8 in SSW 4.3 mph 8.7 mph 96 % 0 in
19:24 48.2 °F 47.1 °F 29.8 in SSE 6.5 mph 9.6 mph 96 % 0 in
19:29 48.2 °F 47.1 °F 29.8 in SSW 6 mph 10.1 mph 96 % 0 in
19:34 48.2 °F 47.1 °F 29.8 in SW 6.3 mph 11.2 mph 96 % 0 in
19:39 48.2 °F 47.1 °F 29.8 in South 4.9 mph 11.2 mph 96 % 0 in
19:44 48.2 °F 47.1 °F 29.8 in South 6.5 mph 10.7 mph 96 % 0 in
19:49 48.2 °F 47.1 °F 29.8 in SSW 5.6 mph 10.3 mph 96 % 0 in
19:54 48.2 °F 47.1 °F 29.7 in SSW 5.8 mph 7.8 mph 96 % 0 in
19:59 48.2 °F 47.1 °F 29.7 in SSW 7.4 mph 10.1 mph 96 % 0 in
20:04 48.4 °F 47.3 °F 29.7 in South 5.8 mph 10.7 mph 96 % 0 in
20:09 48.4 °F 47.3 °F 29.8 in SSE 8.7 mph 10.7 mph 96 % 0 in
20:14 48.4 °F 47.7 °F 29.8 in South 9.6 mph 10.7 mph 97 % 0 in
20:19 48.4 °F 47.7 °F 29.8 in SSE 6.3 mph 12.1 mph 97 % 0 in
20:24 48.4 °F 47.3 °F 29.7 in SSE 8.1 mph 12.5 mph 96 % 0 in
20:29 48.4 °F 47.7 °F 29.7 in SSW 5.8 mph 12.5 mph 97 % 0 in
20:34 48.4 °F 47.3 °F 29.7 in South 4.3 mph 8.7 mph 96 % 0 in
20:39 48.4 °F 47.3 °F 29.7 in SSW 5.4 mph 8.7 mph 96 % 0 in
20:44 48.4 °F 47.3 °F 29.7 in SSE 8.1 mph 8.1 mph 96 % 0 in
20:49 48.4 °F 47.3 °F 29.7 in SSE 6.5 mph 10.7 mph 96 % 0 in
20:54 48.4 °F 47.3 °F 29.7 in South 8.5 mph 10.7 mph 96 % 0 in
20:59 48.4 °F 47.7 °F 29.7 in SSW 4.3 mph 8.5 mph 97 % 0 in
21:04 48.4 °F 47.3 °F 29.7 in SSW 7.6 mph 9.8 mph 96 % 0 in
21:09 48.4 °F 47.7 °F 29.7 in South 7.2 mph 9.8 mph 97 % 0 in
21:14 48.4 °F 47.7 °F 29.7 in South 4.9 mph 8.7 mph 97 % 0 in
21:19 48.6 °F 47.5 °F 29.7 in South 7.4 mph 8.7 mph 96 % 0 in
21:24 48.4 °F 47.7 °F 29.8 in South 6.5 mph 8.7 mph 97 % 0 in
21:29 48.4 °F 47.7 °F 29.8 in South 4 mph 8.1 mph 97 % 0 in
21:34 48.4 °F 47.3 °F 29.8 in South 4.9 mph 8.1 mph 96 % 0 in
21:39 48.4 °F 47.3 °F 29.7 in SSE 5.4 mph 8.1 mph 96 % 0 in
21:44 48.2 °F 47.1 °F 29.7 in SSW 7.2 mph 7.6 mph 96 % 0 in
21:49 48.2 °F 47.1 °F 29.7 in South 6 mph 7.2 mph 96 % 0 in
21:54 48.2 °F 47.1 °F 29.7 in South 5.4 mph 7.4 mph 96 % 0 in
21:59 48.2 °F 47.1 °F 29.7 in South 2.2 mph 7.4 mph 96 % 0 in
22:04 48.2 °F 47.1 °F 29.7 in South 2.7 mph 5.6 mph 96 % 0 in
22:09 48 °F 46.9 °F 29.7 in SSW 0.9 mph 5.6 mph 96 % 0 in
22:14 48 °F 46.9 °F 29.7 in South 3.8 mph 6.3 mph 96 % 0 in
22:19 47.8 °F 46.8 °F 29.7 in South 4 mph 6.3 mph 96 % 0 in
22:24 47.7 °F 46.9 °F 29.7 in South 3.4 mph 5.6 mph 97 % 0 in
22:29 47.7 °F 46.9 °F 29.7 in South 6 mph 6.7 mph 97 % 0 in
22:34 47.8 °F 46.8 °F 29.7 in South 4.3 mph 6.7 mph 96 % 0 in
22:39 47.8 °F 47.1 °F 29.7 in South 3.4 mph 8.1 mph 97 % 0 in
22:44 48 °F 47.1 °F 29.7 in SSW 7.2 mph 8.1 mph 97 % 0 in
22:49 48 °F 47.1 °F 29.7 in South 5.4 mph 8.1 mph 97 % 0 in
22:54 48 °F 47.1 °F 29.7 in South 6.3 mph 8.1 mph 97 % 0 in
22:59 48 °F 47.1 °F 29.7 in SSW 5.4 mph 7.4 mph 97 % 0 in
23:04 48 °F 47.1 °F 29.7 in South 5.8 mph 8.1 mph 97 % 0 in
23:05 48 °F 47.1 °F 29.7 in SSW 3.8 mph 8.1 mph 97 % 0 in
23:10 48 °F 47.1 °F 29.7 in South 5.4 mph 7.4 mph 97 % 0 in
23:15 48 °F 47.1 °F 29.7 in SSW 4.3 mph 10.5 mph 97 % 0 in
23:20 48 °F 47.1 °F 29.7 in South 4.9 mph 10.5 mph 97 % 0 in
23:25 48 °F 47.1 °F 29.7 in SSW 7.4 mph 8.5 mph 97 % 0 in
23:30 48 °F 47.1 °F 29.7 in SSW 5.8 mph 8.5 mph 97 % 0 in
23:35 47.8 °F 47.1 °F 29.7 in SSW 6.3 mph 7.8 mph 97 % 0 in
23:40 47.8 °F 47.1 °F 29.7 in SSW 6.3 mph 7.8 mph 97 % 0 in
23:45 47.7 °F 46.9 °F 29.7 in South 5.6 mph 6.5 mph 97 % 0 in
23:50 47.7 °F 46.9 °F 29.7 in SSW 6 mph 7.4 mph 97 % 0 in
23:55 47.7 °F 46.9 °F 29.7 in South 3.8 mph 8.7 mph 97 % 0 in
Le Gheer Warneton
Courtoisie de Weather Underground - 2.25 mb

Mise a jour : 18/12/2017 21:30:12
Généré par Cumulus 1.9.4 (1099)